User: anonymous   Login
Location: Okie-Tex Star Party
(36.8978°N, 102.9520°W)
Time: 21:25:05
(UTC-06:00)
Language:

Hamsat - Orbit

View from above orbital plane
View from above orbital plane
View from above satellite
View from above satellite

Ground track
Ground track

The orbit data is extracted from the following two-line orbital elements,

1 28650U 05017B   17350.97211838  .00000221  00000-0  29354-4 0  9991
2 28650  97.6750 319.3659 0022102 244.2933 115.6003 14.88829500683364
Epoch (UTC): 16 December 2017 23:19:51
Eccentricity: 0.0022102
inclination: 97.6750°
perigee height: 586 km
apogee height: 617 km
right ascension of ascending node: 319.3659°
argument of perigee: 244.2933°
revolutions per day: 14.88829500
mean anomaly at epoch: 115.6003°
orbit number at epoch: 68336

The dashed part of the orbit path shows where the satellite is in the earth's shadow,  

DLR